Regional Weather Roundup
Issued by NWS Cleveland, OH

Home | Current Version | Previous Version | Graphics & Text | Print | Product List | Glossary On
Versions: 1 2 3 4 5 6 7 8 9 10 11 12 13 14 15 16 17 18 19 20 21 22 23 24 25 26 27 28 29 30 31 32 33 34 35 36 37 38 39 40 41 42 43 44 45 46 47 48 49 50
000
ASUS41 KCLE 061602
RWRCLE
OHIO REGIONAL WEATHER ROUNDUP
NATIONAL WEATHER SERVICE CLEVELAND, OH
1100 AM EST TUE DEC 06 2016

NOTE: "FAIR" INDICATES FEW OR NO CLOUDS BELOW 12,000 FEET WITH NO
SIGNIFICANT WEATHER AND/OR OBSTRUCTIONS TO VISIBILITY.

OHZ001>008-015>018-024>027-034-035-043-044-061700-
   NORTHWEST OHIO

CITY           SKY/WX    TMP DP  RH WIND       PRES   REMARKS
DEFIANCE       CLOUDY    37  30  75 E7        29.76S
FINDLAY        RAIN      36  31  82 E8        29.71F
TOLEDO EXPRESS CLOUDY    38  31  76 E9        29.76R
TOLEDO EXEC    CLOUDY    39  31  72 E9        29.76F
LIMA           RAIN      35  34  96 E5        29.71R FOG
$$

OHZ009>014-019>023-028>033-038-089-061700-
   NORTHEAST OHIO

CITY           SKY/WX    TMP DP  RH WIND       PRES   REMARKS
CLE-HOPKINS    CLOUDY    41  29  62 SE13G20   29.79F
CLE-LAKEFRONT  CLOUDY    41  28  60 SE18G26   29.76F
CUY CO. ARPT   NOT AVBL
LORAIN-ELYRIA  MIX PCPN  37  29  72 SE13      29.75F
ASHTABULA      PTSUNNY   38  29  70 SE17G25   29.82F
AKRON-CANTON   LGT RAIN  37  31  78 SE14G20   29.76F
WOOSTER        LGT RAIN  35  32  88 E13       29.74F FOG     WCI  26
MANSFIELD      CLOUDY    35  33  92 E13       29.71F FOG     WCI  26
YOUNGSTOWN     LGT RAIN  38  28  67 SE17      29.80F
$$

OHZ042-051>053-060>062-070>072-077>081-061700-
  SOUTHWEST OHIO

CITY           SKY/WX    TMP DP  RH WIND       PRES   REMARKS
CINC-COVINGTON LGT RAIN  41  40  96 N8        29.66S VSB 1
CINC-LUNKEN    RAIN      43  42  97 CALM      29.68F FOG
HAMILTON       RAIN      40  38  93 NW8       29.69R FOG
DAYTON         RAIN      38  37  97 NW3       29.69R FOG
WRIGHT-PAT AFB NOT AVBL
DAYTON GENERAL HVY RAIN  40  38  93 CALM      29.67R FOG
WILMINGTON     LGT RAIN  40  39  97 SE7       29.65F FOG
$$

OHZ036-037-039>041-045>050-054>059-063>069-073>076-082>088-061700-
  CENTRAL AND SOUTHEAST OHIO

CITY           SKY/WX    TMP DP  RH WIND       PRES   REMARKS
COLUMBUS       RAIN      41  41 100 E13       29.69F FOG
OSU AIRPORT    RAIN      41  40  96 E8        29.68F FOG
BOLTON FIELD   LGT RAIN  39  37  93 E9        29.68F FOG
RICKENBACK AFB RAIN      39  38  99 E5        29.68F
NEWARK         LGT RAIN  39  36  89 VRB5      29.69F FOG
MARION         LGT RAIN  38  35  89 SE9       29.70F FOG
LANCASTER      RAIN      41  39  93 SE8       29.69F FOG
ZANESVILLE     CLOUDY    40  37  89 E7        29.71F
NEW PHILLY     NOT AVBL
$$




USA.gov is the U.S. government's official web portal to all federal, state and local government web resources and services.